This is the latest recevied weather packets stored in our database for station/object KC0RKM-13. If no packets are shown the sender has not sent any weather packets the latest 10 day(s).
| Time | Temp. | Humidity | Pressure | Rain* | Wind** | Luminosity | Snow |
|---|---|---|---|---|---|---|---|
| 1788198004 | 33.89° C | 40% | 1013.4 hPa | 0 mm | - | - | - |
| 1788197404 | 33.89° C | 41% | 1013.2 hPa | 0 mm | - | - | - |
| 1788196803 | 33.89° C | 41% | 1013.5 hPa | 0 mm | - | - | - |
| 1788196204 | 33.33° C | 41% | 1013.5 hPa | 0 mm | - | - | - |
| 1788195604 | 33.33° C | 42% | 1013.8 hPa | 0 mm | - | - | - |
| 1788195004 | 33.33° C | 42% | 1013.8 hPa | 0 mm | - | - | - |
| 1788194404 | 32.78° C | 43% | 1013.7 hPa | 0 mm | - | - | - |
| 1788193803 | 32.78° C | 43% | 1013.8 hPa | 0 mm | - | - | - |
| 1788193203 | 32.78° C | 44% | 1013.7 hPa | 0 mm | - | - | - |
| 1788192603 | 32.22° C | 44% | 1013.8 hPa | 0 mm | - | - | - |
| 1788192014 | 31.67° C | 45% | 1013.9 hPa | 0 mm | - | - | - |
| 1788191403 | 31.11° C | 46% | 1014.3 hPa | 0 mm | - | - | - |
| 1788190803 | 30.56° C | 47% | 1014 hPa | 0 mm | - | - | - |
| 1788190203 | 30.56° C | 48% | 1014.4 hPa | 0 mm | - | - | - |
| 1788189603 | 30° C | 49% | 1014.2 hPa | 0 mm | - | - | - |
| 1788189003 | 29.44° C | 50% | 1014.2 hPa | 0 mm | - | - | - |
| 1788188403 | 30° C | 49% | 1014.3 hPa | 0 mm | - | - | - |
| 1788187803 | 29.44° C | 50% | 1014 hPa | 0 mm | - | - | - |
| 1788187204 | 28.89° C | 54% | 1014.3 hPa | 0 mm | - | - | - |
| 1788186603 | 28.33° C | 55% | 1014.4 hPa | 0 mm | - | - | - |
| 1788186004 | 27.78° C | 56% | 1014.6 hPa | 0 mm | - | - | - |
| 1788185403 | 26.67° C | 60% | 1014.8 hPa | 0 mm | - | - | - |
| 1788184803 | 26.11° C | 61% | 1014.8 hPa | 0 mm | - | - | - |
| 1788184203 | 25.56° C | 63% | 1015 hPa | 0 mm | - | - | - |
| 1788183603 | 25.56° C | 62% | 1014.9 hPa | 0 mm | - | - | - |
* Rain latest hour (hover to see other rain measurements)
** Current wind speed in m/s (hover to see current wind gust speed)